When you browse on this site, cookies collect data to enhance your experience and personalize the content and advertising you see.
Visit our Privacy Policy to learn more. By continuing to use the site, you agree to this use of cookies and data.
  • In Denmark
  • List of Countries
  • For 7 days
  • Water Temperature
  • Weather Map
  • Weather Widgets
  • user-avatar
    Login

    Hourly Weather Cempkowo

    Today, 14 December, Saturday

    Time Temperature Precipitation Wind Pressure Humidity
    00:00 0°C° 0 mm 4 mps 733 mmHg 86%
    01:00 0°C° 0 mm 4 mps 733 mmHg 88%
    02:00 0°C° 0 mm 4 mps 733 mmHg 87%
    03:00 0°C° 0 mm 5 mps 733 mmHg 86%
    04:00 0°C° 0 mm 5 mps 733 mmHg 85%
    05:00 0°C° 0 mm 5 mps 733 mmHg 85%
    06:00 0°C° 0 mm 5 mps 733 mmHg 85%
    07:00 -1°C° 0 mm 5 mps 734 mmHg 84%
    08:00 0°C° 0 mm 5 mps 734 mmHg 81%
    09:00 +1°C° 0 mm 6 mps 734 mmHg 79%
    10:00 +2°C° 0 mm 6 mps 734 mmHg 76%
    11:00 +2°C° 0 mm 6 mps 734 mmHg 75%
    12:00 +2°C° 0 mm 5 mps 734 mmHg 75%
    13:00 +3°C° 0 mm 5 mps 734 mmHg 74%
    14:00 +3°C° 0 mm 5 mps 734 mmHg 76%
    15:00 +3°C° 0 mm 4 mps 734 mmHg 78%
    16:00 +3°C° 0 mm 4 mps 734 mmHg 80%
    17:00 +2°C° 0 mm 5 mps 734 mmHg 84%
    18:00 +2°C° 0 mm 6 mps 734 mmHg 88%
    19:00 +2°C° 0 mm 6 mps 734 mmHg 91%
    20:00 +2°C° 0.3 mm 7 mps 735 mmHg 88%
    21:00 +1°C° 0.3 mm 8 mps 735 mmHg 84%
    22:00 +1°C° 0.3 mm 8 mps 736 mmHg 81%
    23:00 +1°C° 0 mm 8 mps 737 mmHg 82%

    Tomorrow, 15 December, Sunday

    Time Temperature Precipitation Wind Pressure Humidity
    00:00 +2°C° 0 mm 7 mps 737 mmHg 83%
    01:00 +1°C° 0 mm 6 mps 738 mmHg 84%
    02:00 +1°C° 0.1 mm 6 mps 738 mmHg 87%
    03:00 +1°C° 0.1 mm 6 mps 739 mmHg 90%
    04:00 +1°C° 0.1 mm 5 mps 739 mmHg 93%
    05:00 +1°C° 0.1 mm 5 mps 740 mmHg 92%
    06:00 +1°C° 0.1 mm 5 mps 741 mmHg 90%
    07:00 +1°C° 0.1 mm 4 mps 741 mmHg 88%
    08:00 +1°C° 0 mm 5 mps 742 mmHg 85%
    09:00 +1°C° 0 mm 5 mps 742 mmHg 83%
    10:00 +1°C° 0 mm 5 mps 743 mmHg 80%
    11:00 +2°C° 0 mm 5 mps 743 mmHg 74%
    12:00 +3°C° 0 mm 5 mps 742 mmHg 67%
    13:00 +3°C° 0 mm 5 mps 742 mmHg 61%
    14:00 +3°C° 0.3 mm 5 mps 742 mmHg 69%
    15:00 +4°C° 0.3 mm 4 mps 742 mmHg 77%
    16:00 +4°C° 0.3 mm 4 mps 741 mmHg 85%
    17:00 +5°C° 0.1 mm 5 mps 742 mmHg 86%
    18:00 +6°C° 0.1 mm 5 mps 742 mmHg 87%
    19:00 +5°C° 0.1 mm 6 mps 743 mmHg 88%
    20:00 +5°C° 0 mm 6 mps 744 mmHg 87%
    21:00 +5°C° 0 mm 5 mps 744 mmHg 86%
    22:00 +5°C° 0 mm 5 mps 745 mmHg 85%
    23:00 +4°C° 0 mm 4 mps 746 mmHg 86%

    Day after tomorrow, 16 December, Monday

    Time Temperature Precipitation Wind Pressure Humidity
    00:00 +4°C° 0 mm 4 mps 746 mmHg 87%
    01:00 +4°C° 0 mm 4 mps 747 mmHg 88%
    02:00 +3°C° 0 mm 4 mps 747 mmHg 89%
    03:00 +3°C° 0 mm 4 mps 748 mmHg 90%
    04:00 +3°C° 0 mm 3 mps 748 mmHg 91%
    05:00 +3°C° 0 mm 3 mps 748 mmHg 92%
    06:00 +3°C° 0 mm 3 mps 749 mmHg 92%
    07:00 +2°C° 0 mm 3 mps 749 mmHg 93%
    08:00 +3°C° 0 mm 3 mps 749 mmHg 91%
    09:00 +3°C° 0 mm 3 mps 750 mmHg 90%
    10:00 +4°C° 0 mm 3 mps 750 mmHg 89%
    11:00 +5°C° 0 mm 3 mps 750 mmHg 87%
    12:00 +5°C° 0 mm 3 mps 750 mmHg 85%
    13:00 +7°C° 0 mm 3 mps 750 mmHg 83%
    14:00 +5°C° 0 mm 3 mps 750 mmHg 83%
    15:00 +5°C° 0 mm 3 mps 750 mmHg 83%
    16:00 +5°C° 0 mm 3 mps 749 mmHg 83%
    17:00 +5°C° 0 mm 3 mps 749 mmHg 83%
    18:00 +5°C° 0 mm 3 mps 749 mmHg 82%
    19:00 +5°C° 0 mm 3 mps 749 mmHg 82%
    20:00 +5°C° 0 mm 3 mps 749 mmHg 84%
    21:00 +5°C° 0 mm 3 mps 749 mmHg 85%
    22:00 +4°C° 0 mm 3 mps 749 mmHg 87%
    23:00 +4°C° 0 mm 3 mps 749 mmHg 87%

    17 December, Tuesday

    Time Temperature Precipitation Wind Pressure Humidity
    00:00 +4°C° 0 mm 3 mps 749 mmHg 88%
    01:00 +4°C° 0 mm 3 mps 748 mmHg 88%
    02:00 +4°C° 0 mm 3 mps 748 mmHg 88%
    03:00 +4°C° 0 mm 3 mps 748 mmHg 88%
    04:00 +4°C° 0 mm 3 mps 748 mmHg 88%
    05:00 +4°C° 0 mm 3 mps 748 mmHg 88%
    06:00 +4°C° 0 mm 3 mps 747 mmHg 88%
    07:00 +4°C° 0 mm 3 mps 747 mmHg 88%
    08:00 +4°C° 0 mm 3 mps 747 mmHg 87%
    09:00 +5°C° 0 mm 3 mps 748 mmHg 86%
    10:00 +5°C° 0 mm 3 mps 748 mmHg 84%
    11:00 +7°C° 0 mm 3 mps 748 mmHg 83%
    12:00 +8°C° 0 mm 3 mps 747 mmHg 82%
    13:00 +8°C° 0 mm 3 mps 747 mmHg 81%
    14:00 +8°C° 0 mm 3 mps 747 mmHg 83%
    15:00 +7°C° 0 mm 3 mps 747 mmHg 85%
    16:00 +5°C° 0 mm 3 mps 747 mmHg 87%
    17:00 +5°C° 0 mm 3 mps 747 mmHg 87%
    18:00 +5°C° 0 mm 3 mps 748 mmHg 87%
    19:00 +6°C° 0 mm 2 mps 748 mmHg 87%
    20:00 +6°C° 0 mm 2 mps 748 mmHg 88%
    21:00 +6°C° 0 mm 2 mps 748 mmHg 89%
    22:00 +6°C° 0 mm 2 mps 748 mmHg 89%
    23:00 +6°C° 0 mm 2 mps 748 mmHg 91%

    18 December, Wednesday

    Time Temperature Precipitation Wind Pressure Humidity
    00:00 +5°C° 0 mm 2 mps 748 mmHg 92%
    01:00 +5°C° 0 mm 2 mps 748 mmHg 93%
    02:00 +5°C° 0 mm 2 mps 748 mmHg 94%
    03:00 +4°C° 0 mm 2 mps 748 mmHg 94%
    04:00 +4°C° 0 mm 2 mps 748 mmHg 95%
    05:00 +4°C° 0 mm 2 mps 748 mmHg 94%
    06:00 +4°C° 0 mm 2 mps 748 mmHg 93%
    07:00 +3°C° 0 mm 2 mps 748 mmHg 93%
    08:00 +4°C° 0 mm 2 mps 749 mmHg 90%
    09:00 +4°C° 0 mm 3 mps 749 mmHg 87%
    10:00 +4°C° 0 mm 3 mps 749 mmHg 85%
    11:00 +5°C° 0 mm 3 mps 749 mmHg 81%
    12:00 +7°C° 0 mm 3 mps 749 mmHg 77%
    13:00 +8°C° 0 mm 3 mps 749 mmHg 73%
    14:00 +8°C° 0 mm 3 mps 749 mmHg 77%
    15:00 +7°C° 0 mm 3 mps 749 mmHg 81%
    16:00 +5°C° 0 mm 3 mps 750 mmHg 85%
    17:00 +5°C° 0 mm 3 mps 750 mmHg 86%
    18:00 +4°C° 0 mm 3 mps 750 mmHg 87%
    19:00 +4°C° 0 mm 3 mps 751 mmHg 88%
    20:00 +4°C° 0 mm 3 mps 751 mmHg 90%
    21:00 +3°C° 0 mm 3 mps 752 mmHg 91%
    22:00 +4°C° 0 mm 2 mps 752 mmHg 93%
    23:00 +4°C° 0 mm 2 mps 752 mmHg 93%

    19 December, Thursday

    Time Temperature Precipitation Wind Pressure Humidity
    00:00 +4°C° 0 mm 2 mps 752 mmHg 93%
    01:00 +5°C° 0 mm 1 mps 753 mmHg 93%
    02:00 +4°C° 0 mm 1 mps 753 mmHg 93%
    03:00 +4°C° 0 mm 1 mps 753 mmHg 93%
    04:00 +4°C° 0 mm 1 mps 753 mmHg 93%
    05:00 +3°C° 0 mm 2 mps 753 mmHg 93%
    06:00 +3°C° 0 mm 2 mps 753 mmHg 93%
    07:00 +3°C° 0 mm 2 mps 753 mmHg 93%
    08:00 +3°C° 0 mm 2 mps 753 mmHg 91%
    09:00 +3°C° 0 mm 3 mps 753 mmHg 88%
    10:00 +3°C° 0 mm 3 mps 753 mmHg 86%
    11:00 +3°C° 0 mm 3 mps 753 mmHg 83%
    12:00 +4°C° 0 mm 4 mps 753 mmHg 80%
    13:00 +4°C° 0 mm 4 mps 753 mmHg 78%
    14:00 +3°C° 0 mm 4 mps 752 mmHg 80%
    15:00 +3°C° 0 mm 4 mps 752 mmHg 81%
    16:00 +3°C° 0 mm 4 mps 752 mmHg 83%
    17:00 +2°C° 0 mm 5 mps 752 mmHg 83%
    18:00 +2°C° 0 mm 5 mps 752 mmHg 82%
    19:00 +2°C° 0 mm 5 mps 751 mmHg 81%
    20:00 +2°C° 0 mm 5 mps 751 mmHg 81%
    21:00 +2°C° 0 mm 5 mps 751 mmHg 80%
    22:00 +2°C° 0 mm 5 mps 751 mmHg 80%
    23:00 +2°C° 0 mm 5 mps 750 mmHg 80%
    Show more